GFSGBSN_2pvu_pres_060.txt.gz
Presure
188 191 187 195 231 226 212 187 202 213 210 203 195 186 191 189 184 189 185 187 185 186 187 182 193 194 194 215 224 210 235 246 211 246 261 390 262 279 273 271 262 238 222 177 212 219 215
194 195 187 197 228 218 207 196 202 202 206 203 202 204 190 193 179 181 205 188 213 194 193 195 201 210 213 209 213 160 231 222 222 250 359 356 304 335 274 254 255 243 231 223 210 198 211
193 172 202 215 219 214 223 205 208 206 185 205 216 206 200 202 203 195 193 196 200 209 206 217 216 219 198 226 226 209 239 214 183 311 300 295 308 268 230 228 213 222 234 215 213 198 206
202 200 200 203 220 215 206 216 204 204 203 208 177 168 210 200 211 200 202 206 202 207 209 219 218 228 232 208 247 203 254 153 278 309 313 270 286 249 230 228 243 219 206 214 214 204 206
209 163 204 217 220 204 212 212 211 212 207 197 213 198 188 200 205 180 197 185 204 209 189 218 206 226 189 249 211 244 161 212 319 346 282 272 276 243 233 220 224 232 223 212 202 202 194
217 205 227 225 228 219 204 208 200 202 195 194 195 195 183 190 189 202 196 184 204 207 217 228 234 202 235 213 249 214 241 325 332 275 272 268 270 233 212 198 234 200 214 211 196 202 197
214 213 233 237 223 225 209 204 194 193 205 195 202 205 205 202 199 190 211 215 200 225 230 224 228 213 229 230 211 251 251 317 266 251 260 276 271 253 212 243 232 219 211 206 201 196 197
207 214 228 223 218 216 209 207 215 216 197 205 208 211 202 203 217 213 214 223 219 231 225 220 232 228 218 243 203 236 299 268 251 242 258 252 251 238 246 235 216 207 210 193 199 196 183
213 223 228 220 225 236 213 204 213 204 210 210 201 206 203 207 206 206 202 202 217 203 217 228 228 230 234 235 264 223 287 260 251 250 239 237 242 234 236 216 214 206 205 191 192 194 184
230 235 238 234 216 220 219 209 223 222 218 206 214 210 203 207 217 228 213 227 230 225 235 219 227 232 218 262 220 220 276 254 247 243 248 229 233 233 226 210 206 211 197 198 193 193 190
249 245 240 243 224 232 224 226 220 223 226 223 218 219 224 231 225 216 262 243 253 236 248 255 224 232 247 254 265 225 252 242 237 238 229 230 231 228 216 208 209 206 203 201 193 189 194
275 257 236 229 225 224 239 234 235 218 237 229 224 242 228 238 248 247 258 258 251 242 245 247 246 244 251 235 237 297 264 236 227 225 229 242 237 237 214 207 204 201 205 193 186 192 185
279 261 256 257 265 244 253 256 256 260 253 249 248 254 240 283 267 256 262 255 246 253 247 246 238 234 244 259 236 348 263 232 235 221 223 245 233 230 214 202 198 199 205 192 188 186 183
253 249 252 252 253 261 270 269 281 273 260 282 285 270 253 265 256 260 258 252 243 245 235 245 243 252 245 265 243 343 248 236 233 225 216 220 230 231 210 206 200 196 205 196 190 183 176
271 268 258 264 277 275 281 284 286 282 279 277 277 274 260 257 259 266 252 256 244 234 247 237 236 252 226 254 261 353 249 239 231 227 225 213 219 230 218 207 199 195 202 192 192 186 178
285 265 268 275 280 278 272 281 298 305 319 304 301 310 292 283 278 274 279 265 243 242 236 236 250 247 249 246 260 340 251 240 230 228 226 219 214 226 226 211 199 197 200 186 196 185 183
275 275 276 284 297 314 304 311 299 290 286 295 293 295 285 295 310 315 282 272 261 256 251 249 260 258 264 279 325 325 251 243 237 227 221 224 219 228 228 219 196 190 193 195 193 192 182
296 297 297 296 291 282 280 313 318 332 337 367 362 398 340 295 291 292 309 307 271 256 261 267 232 273 269 319 313 313 264 249 237 228 220 234 224 214 211 221 207 202 192 199 192 191 183
273 271 278 292 320 308 338 327 326 344 426 419 418 422 437 421 335 328 288 284 299 288 279 293 274 258 294 303 287 308 275 249 231 224 235 221 216 213 202 217 224 195 193 185 191 192 189
287 312 293 324 339 322 324 385 424 404 394 393 393 395 395 423 375 410 370 324 277 273 279 290 289 278 284 293 284 304 306 255 238 231 228 225 214 203 205 216 220 228 200 189 181 193 197
295 328 323 321 326 369 435 406 386 374 367 367 365 367 370 376 398 412 394 376 316 310 270 279 283 275 275 284 286 300 302 256 239 232 223 223 223 220 216 212 224 227 211 193 198 189 198
322 318 315 436 439 406 385 365 359 350 348 351 344 342 349 360 363 388 402 387 363 310 304 274 281 272 266 281 277 287 299 253 259 236 226 222 217 220 214 222 225 220 214 202 195 190 195
304 456 433 409 385 365 353 340 342 362 362 365 366 368 350 343 353 364 390 390 351 329 310 296 280 282 279 274 287 286 294 302 249 256 237 229 225 222 206 213 216 222 201 212 214 207 201
410 390 378 366 344 332 352 354 349 353 361 371 376 389 413 480 349 353 369 374 368 357 313 305 302 281 280 287 281 282 288 298 253 240 249 232 227 222 220 215 210 207 216 214 205 212 209
370 355 350 366 358 351 344 342 345 351 366 373 376 393 444 456 343 347 360 371 370 350 322 98 314 308 291 289 275 282 289 301 304 248 241 248 234 229 225 217 214 214 215 205 219 217 199
375 387 378 352 338 332 337 338 345 363 374 377 384 421 437 421 339 335 358 366 359 351 339 114 323 315 310 306 294 269 281 292 309 283 249 240 241 244 230 216 217 213 213 212 214 211 217
384 364 346 328 324 328 334 339 351 375 380 387 407 435 420 416 333 340 361 358 354 345 324 315 321 322 320 323 323 305 272 284 297 287 279 250 237 249 233 224 222 220 219 210 204 200 216
359 341 324 316 321 328 334 345 372 384 391 409 435 428 431 331 337 357 359 347 344 337 331 320 322 321 315 329 329 236 330 326 283 298 298 278 252 241 247 236 227 220 220 217 221 213 210
328 325 325 319 317 329 340 361 387 399 413 442 445 401 327 337 359 355 349 343 334 335 318 328 326 324 323 322 365 364 346 360 362 340 295 289 283 251 243 240 229 222 226 213 210 211 210

GFSGBSN_2pvu_pres_066.txt.gz
Presure
203 158 167 198 172 177 194 178 192 181 184 178 176 189 192 199 212 202 213 206 211 207 197 198 205 196 190 195 198 200 196 200 198 199 197 196 202 202 211 233 235 286 241 274 248 240 296
180 182 187 172 190 180 169 167 175 178 194 200 191 197 205 178 224 208 211 185 205 203 205 196 204 195 198 178 195 198 191 189 194 190 197 193 211 211 235 218 277 270 244 202 372 344 338
190 205 172 199 194 185 189 169 177 184 200 188 214 200 202 192 218 222 219 205 209 216 207 206 197 190 214 200 189 209 186 214 202 213 223 215 194 235 226 237 255 281 193 300 360 324 278
171 202 167 194 203 191 195 198 188 200 198 222 204 192 219 208 241 223 214 225 210 208 197 207 215 194 200 193 205 193 213 183 210 213 219 213 222 238 180 252 223 265 327 309 332 316 257
201 211 205 188 217 217 208 208 199 181 216 214 216 203 214 213 256 227 224 217 219 213 202 199 190 177 210 207 189 202 193 206 204 213 199 190 223 218 250 245 274 271 303 315 315 302 261
205 205 208 211 229 195 194 215 208 204 220 223 216 221 219 234 245 232 222 223 211 228 207 214 192 206 201 200 205 203 193 188 204 206 202 201 199 236 257 249 249 312 289 324 242 241 263
215 211 216 207 218 204 214 212 198 216 211 218 228 226 234 243 241 225 221 215 213 210 225 204 203 204 207 192 208 187 209 203 194 201 210 230 196 246 243 281 187 300 315 287 267 263 264
212 213 217 221 217 225 212 213 216 215 211 221 232 232 249 243 244 236 222 216 215 214 214 213 199 200 207 209 189 198 194 196 206 224 221 211 224 234 256 257 291 281 325 239 258 263 250
215 213 216 223 230 219 224 225 222 217 225 256 252 255 249 242 242 235 232 227 224 219 212 213 209 216 203 208 207 199 199 220 207 217 216 209 227 285 270 228 277 276 291 229 230 247 228
214 217 231 215 227 225 225 219 217 223 231 267 257 257 258 244 239 236 233 227 225 229 217 212 205 205 216 214 201 207 214 206 227 209 225 243 287 271 257 256 269 251 243 235 221 249 219
218 222 219 219 217 223 221 235 225 238 263 266 272 271 257 246 241 239 238 239 229 225 229 220 216 213 215 211 211 219 217 232 221 222 230 238 277 270 261 249 265 262 247 264 221 233 215
215 220 215 216 209 223 219 231 281 289 283 271 269 277 268 253 246 239 234 236 239 232 223 228 224 227 217 216 221 223 238 228 242 232 273 271 266 249 279 247 248 242 248 239 207 214 212
217 225 215 216 228 231 272 267 293 284 288 289 300 272 268 276 263 260 249 230 233 236 237 237 235 231 224 229 223 216 228 236 223 279 264 264 264 235 275 243 247 242 243 241 226 214 199
227 216 224 246 237 268 305 297 290 292 282 281 275 276 293 275 274 268 262 261 264 251 252 259 254 258 255 258 254 249 256 269 289 271 256 250 261 231 255 244 240 234 247 242 213 198 217
221 243 235 232 305 294 289 286 279 281 276 277 276 271 275 283 274 268 263 271 267 256 261 255 257 266 259 266 264 280 291 292 276 261 253 254 248 219 270 245 230 231 240 216 232 201 212
276 297 296 293 283 282 273 269 268 273 273 281 285 291 300 300 304 294 287 288 272 264 243 269 268 276 264 287 286 284 283 271 266 256 250 258 235 261 243 243 226 227 229 229 216 210 218
272 280 275 282 276 273 269 266 292 315 321 319 312 294 287 289 290 291 301 308 306 286 289 91 291 290 291 264 277 272 243 264 256 260 252 253 234 264 245 247 225 221 230 223 217 209 213
289 282 285 279 277 258 317 303 299 291 284 277 275 277 280 293 305 317 292 281 287 287 283 292 303 311 278 320 318 279 279 270 256 253 248 253 233 261 238 237 229 225 218 223 221 216 206
286 281 273 264 295 294 295 290 281 278 285 325 314 313 341 344 348 345 341 345 348 345 335 323 322 282 282 282 300 315 268 268 263 257 257 253 220 245 241 239 238 229 222 218 218 214 214
268 289 292 291 292 289 280 280 280 295 316 342 330 390 390 467 446 430 368 369 331 320 323 337 330 320 313 279 289 289 300 290 267 257 252 246 233 240 243 230 244 230 220 223 211 213 225
291 288 286 289 286 276 277 287 308 324 328 348 435 416 418 412 407 405 397 403 398 402 438 396 396 326 312 314 284 285 307 287 273 264 255 246 256 234 258 229 231 222 227 231 221 210 212
286 288 282 274 270 279 323 310 330 356 400 375 381 383 388 379 377 366 372 371 370 381 403 393 386 260 341 312 324 283 296 309 283 277 261 259 261 227 283 248 229 225 225 219 226 219 212
279 271 272 276 297 302 312 322 332 387 383 360 342 331 346 348 352 352 348 350 352 363 372 386 367 367 354 319 317 281 271 299 299 270 275 262 278 238 307 249 233 223 218 222 213 218 222
264 267 282 293 297 328 314 383 386 381 369 349 359 363 356 352 348 334 338 341 343 347 359 360 361 362 346 325 315 312 280 284 290 291 273 271 268 237 297 243 245 225 229 222 224 216 209
273 282 288 303 334 308 391 377 391 386 367 353 346 340 334 337 342 349 352 353 332 342 343 360 371 351 361 326 309 303 281 272 290 294 284 268 289 240 277 243 233 240 230 223 220 219 213
286 305 300 330 316 391 361 403 372 351 338 327 329 332 332 332 336 351 359 356 359 328 340 376 355 347 343 342 318 308 293 266 272 288 282 277 254 254 287 241 230 235 229 240 218 215 208
284 301 318 303 384 350 374 356 333 324 321 320 325 329 336 339 356 370 362 364 363 342 331 341 376 343 337 339 331 304 301 293 261 280 278 284 281 285 286 244 228 235 233 232 229 218 221
301 311 293 366 354 340 334 331 324 312 321 323 330 338 362 370 366 382 377 375 378 343 323 339 373 241 362 337 334 322 305 302 273 267 271 282 282 288 275 250 233 233 233 238 230 221 222
296 289 352 326 317 326 346 332 318 315 324 326 351 371 380 388 378 386 416 426 417 346 323 335 370 337 335 369 336 321 302 300 295 264 269 269 278 287 252 295 238 234 231 233 241 223 217

GFSGBSN_2pvu_pres_072.txt.gz
Presure
137 155 135 165 178 138 137 162 150 175 162 170 168 175 182 202 189 200 197 203 193 172 204 215 227 201 195 189 208 201 228 216 204 213 221 207 207 209 204 210 209 205 202 207 198 201 215
177 134 145 161 170 153 134 184 172 162 183 198 163 173 194 201 207 182 172 203 202 209 222 214 229 214 199 200 206 217 215 225 208 202 210 214 197 194 193 191 209 211 202 196 194 210 226
192 166 153 136 130 176 164 182 127 159 189 188 177 199 206 208 203 200 198 223 214 188 207 216 228 236 209 213 204 211 199 185 215 202 199 203 211 213 201 196 202 197 168 199 209 198 211
131 183 185 182 172 166 180 177 181 174 186 192 174 209 213 211 220 215 216 218 215 220 217 232 257 224 246 214 240 237 224 248 219 205 203 192 197 208 212 203 200 200 213 210 198 195 226
177 125 158 177 144 194 179 179 161 200 199 213 216 224 228 227 234 225 222 228 214 252 220 238 309 292 265 259 243 226 229 246 224 213 199 208 193 207 198 197 210 199 190 214 211 214 214
143 197 186 170 175 200 167 187 203 208 210 217 223 223 229 229 233 227 233 221 245 237 264 242 293 276 264 249 248 236 232 240 224 213 215 207 200 195 208 208 209 219 222 203 193 222 152
186 200 183 209 200 166 180 203 207 207 224 217 214 225 250 229 230 235 228 246 246 229 308 291 284 275 264 246 243 241 239 229 221 216 216 207 201 207 205 216 203 197 220 215 198 90 200
197 195 213 205 203 203 215 208 207 221 221 227 222 227 238 241 231 225 252 246 283 272 286 294 280 275 264 256 239 239 233 221 210 214 217 213 213 212 222 221 200 209 217 203 214 224 230
202 191 210 213 209 212 211 224 224 222 229 221 227 222 243 239 235 244 241 246 264 265 287 284 290 282 267 256 240 237 231 213 210 213 208 213 216 217 220 215 214 200 214 214 203 210 171
203 207 197 207 208 213 223 224 220 226 220 217 223 225 237 244 255 242 238 230 281 263 281 277 253 279 269 252 247 234 232 222 218 225 213 217 225 217 210 213 218 224 197 229 231 233 235
206 196 218 207 217 223 225 226 221 224 227 224 229 241 259 244 232 234 273 277 287 266 286 262 259 272 261 261 246 240 226 237 223 227 217 215 220 212 213 223 210 220 229 223 233 230 237
219 228 227 236 234 228 229 223 225 225 231 235 251 250 245 242 231 285 301 313 280 295 280 268 278 282 259 257 256 246 234 234 228 219 219 221 219 211 224 223 219 219 219 217 235 237 276
230 232 223 225 233 232 236 232 217 239 230 251 261 239 269 249 294 306 295 299 326 305 289 284 294 293 291 265 251 257 247 238 223 216 222 225 219 223 227 223 220 213 223 232 247 247 286
224 229 222 226 227 237 229 238 232 253 240 241 237 249 237 287 251 288 302 301 295 291 289 293 293 297 291 287 272 251 257 245 237 228 226 222 221 227 231 236 240 238 234 234 253 288 273
234 235 227 227 242 237 232 236 243 236 229 230 231 283 286 272 303 302 295 292 296 291 275 262 264 295 290 289 298 279 250 250 248 241 237 236 238 238 240 235 243 240 242 247 158 272 253
230 233 230 238 240 227 246 238 235 276 246 231 286 297 252 305 293 294 288 299 302 300 320 326 322 213 210 290 290 283 265 250 248 243 238 239 242 237 241 246 250 246 244 187 236 282 251
237 228 237 257 241 235 229 249 245 266 284 242 284 303 300 289 290 298 297 294 297 301 303 300 299 270 159 328 297 287 169 267 251 253 242 243 239 247 238 239 243 248 291 284 256 266 249
228 241 242 241 246 264 266 250 281 254 283 305 294 290 290 302 302 299 297 298 296 286 287 285 283 75 267 284 174 331 298 290 271 266 249 245 245 246 246 259 257 237 278 255 259 252 258
240 248 244 261 261 285 284 245 279 289 303 299 285 301 309 307 297 296 287 279 298 345 344 335 119 207 297 282 278 277 284 309 305 289 269 266 260 255 254 261 284 277 261 246 257 242 256
243 242 237 258 285 273 262 289 283 295 289 299 304 298 213 285 282 281 332 383 422 442 482 484 338 458 353 327 315 303 279 271 297 299 291 266 266 258 252 281 283 260 252 247 247 236 249
271 290 272 274 282 275 281 283 295 293 296 296 286 282 282 284 326 337 408 390 377 378 427 420 440 429 418 384 338 303 314 291 265 285 296 308 304 287 289 284 272 256 251 244 242 239 251
270 276 280 280 279 279 289 290 285 302 291 281 278 275 311 323 334 407 385 371 366 398 413 398 388 413 404 399 325 322 290 310 297 266 280 283 303 299 282 298 266 249 247 239 234 233 249
279 278 279 280 288 287 278 298 290 280 275 272 292 306 315 336 397 375 369 360 359 373 386 380 378 372 395 389 371 312 319 292 299 309 274 276 275 310 277 286 256 249 245 234 243 233 241
284 281 278 275 281 297 292 279 272 267 277 293 305 304 342 396 383 370 364 370 354 341 355 363 361 363 377 411 393 295 313 316 310 296 303 279 268 294 295 277 253 252 251 247 255 228 239
270 271 288 290 280 271 271 269 272 280 293 298 302 312 346 327 325 335 342 338 345 338 336 345 346 376 364 394 403 395 286 307 311 322 326 308 284 271 304 278 254 254 240 249 251 225 239
278 272 265 266 268 268 270 274 281 295 289 297 290 351 340 324 316 318 326 335 332 343 331 335 338 360 352 351 368 390 307 297 298 313 322 298 307 274 282 295 261 265 251 252 247 239 244
267 267 266 265 268 279 282 293 296 285 292 287 292 317 312 313 319 323 324 324 329 338 352 316 335 339 329 329 322 352 358 375 340 306 310 296 308 272 268 292 272 269 250 239 238 254 231
279 284 290 291 290 292 290 293 285 288 269 285 302 304 310 314 315 322 333 336 340 343 344 326 319 331 325 320 323 339 358 360 328 302 306 292 304 262 276 286 265 269 260 247 244 231 265
284 285 283 283 283 280 281 284 283 271 295 322 296 299 310 322 321 359 353 350 353 354 348 338 310 333 329 319 115 255 373 322 346 312 303 296 290 264 269 282 275 277 262 254 238 233 222

GFSGBSN_2pvu_pres_075.txt.gz
Presure
157 157 164 171 192 157 139 153 133 151 164 190 178 162 162 171 155 181 161 174 187 196 181 196 193 195 207 210 207 217 215 223 216 241 240 213 194 199 187 194 196 210 201 201 200 202 176
182 148 182 139 182 178 166 116 177 173 156 180 174 169 169 148 177 174 173 186 196 194 197 218 222 222 220 211 222 206 203 234 213 232 244 232 204 201 191 221 199 210 203 192 204 200 194
175 182 156 192 124 142 183 182 123 172 179 180 173 139 176 194 172 197 187 202 209 228 217 205 241 216 217 211 225 216 227 233 225 227 236 239 203 215 235 221 211 192 212 202 204 205 204
185 191 175 146 174 172 182 135 121 180 125 163 185 189 175 157 180 216 223 222 229 226 223 214 191 237 225 225 240 237 239 259 278 239 248 223 232 205 202 190 204 198 204 199 209 214 213
171 198 126 143 173 186 177 149 149 149 200 176 204 183 209 180 214 221 223 229 227 218 215 217 224 239 258 251 285 284 298 286 285 256 269 249 227 213 220 212 208 206 195 203 201 201 203
160 195 131 147 196 170 189 172 208 170 199 163 212 221 202 221 225 180 231 225 214 227 225 228 243 263 257 255 293 297 287 274 271 249 239 246 239 222 218 214 217 195 203 200 194 200 210
206 204 196 192 183 205 136 191 204 202 181 182 234 231 228 219 227 229 234 222 224 225 231 274 282 255 298 314 314 288 277 264 257 244 245 241 228 215 228 220 213 211 207 199 195 194 195
173 193 172 129 208 207 202 198 183 223 225 234 221 230 227 229 228 228 230 227 232 247 267 271 300 290 297 310 293 282 269 263 253 239 239 240 229 219 225 230 224 214 212 203 204 210 224
165 205 201 166 125 126 213 217 223 218 223 217 230 221 224 223 224 229 229 237 238 263 261 250 293 284 294 252 287 282 281 274 254 237 248 239 232 228 229 226 223 215 215 212 205 214 225
203 152 168 191 219 217 219 221 227 225 221 226 224 226 238 234 233 219 237 247 241 256 240 282 276 280 282 271 270 276 276 265 252 241 241 232 235 231 229 219 215 215 214 216 217 193 228
203 206 216 215 227 225 226 229 220 221 218 225 228 218 221 232 226 243 260 252 244 253 256 301 301 293 271 279 270 272 263 271 254 248 240 233 231 228 224 207 217 217 220 207 231 214 197
210 220 233 236 227 227 222 216 218 223 224 226 220 224 235 239 224 244 234 254 262 249 295 304 313 310 295 294 278 272 264 268 261 244 247 235 229 224 223 217 215 211 211 221 219 234 227
245 176 233 229 218 184 223 231 230 224 212 226 238 234 231 232 239 234 252 248 307 298 307 308 311 308 304 302 293 292 272 273 259 252 240 241 230 228 221 217 216 207 214 224 228 226 197
237 242 231 229 237 239 237 219 222 220 219 228 226 231 234 249 262 244 305 296 298 292 308 308 311 303 299 298 295 293 281 291 296 256 248 241 232 228 228 232 229 222 227 225 235 201 226
252 237 234 227 234 228 232 234 219 232 233 242 238 237 237 241 259 262 263 251 296 309 307 297 289 294 296 293 289 279 290 293 289 271 253 247 234 231 232 230 227 223 224 228 227 232 231
220 216 243 222 231 243 239 241 243 231 233 228 230 226 262 266 252 288 306 308 300 299 294 296 300 305 304 306 268 278 272 283 291 289 271 252 248 238 232 229 227 230 229 228 232 232 248
254 228 224 230 225 258 247 263 247 251 254 259 248 260 286 260 244 293 299 310 307 299 314 312 307 305 307 154 307 309 323 285 273 279 286 270 253 249 243 237 232 226 234 245 250 251 261
276 244 237 241 239 234 230 225 229 234 242 233 235 272 252 281 293 297 305 302 309 307 309 306 301 298 291 292 297 307 303 303 322 275 278 278 266 250 248 247 243 241 242 245 245 237 245
247 253 240 238 237 241 259 234 236 236 237 261 253 295 279 292 298 306 311 304 298 294 283 279 297 317 341 344 319 295 280 279 287 304 289 284 270 264 249 249 247 243 244 255 256 252 267
256 271 249 244 268 249 240 254 249 257 254 251 274 293 284 304 306 307 298 290 282 313 374 423 417 414 420 525 483 362 333 281 273 275 297 317 283 269 264 254 245 245 248 247 258 260 289
284 274 286 279 289 264 264 279 282 280 276 279 286 294 296 301 298 287 276 332 416 416 396 390 388 391 437 461 486 458 352 320 296 268 273 288 302 300 283 266 261 253 247 254 254 276 258
276 267 264 279 289 265 275 273 278 268 288 284 294 297 300 288 279 312 323 421 404 388 374 371 440 408 396 415 433 444 408 336 307 297 269 269 271 287 321 291 285 265 268 270 251 270 247
276 274 277 274 274 269 287 281 281 282 287 287 302 288 277 277 311 316 382 348 350 382 370 365 391 396 387 391 406 412 395 357 312 297 297 276 273 281 298 299 288 282 262 260 268 259 245
282 280 284 282 284 279 271 274 289 286 282 293 276 271 273 305 307 308 344 337 324 351 367 356 361 372 369 352 384 394 382 357 315 304 298 304 296 279 279 296 315 294 287 289 259 251 239
271 274 270 270 271 279 286 279 276 284 277 271 267 280 303 303 305 316 326 323 317 335 341 356 345 350 356 380 389 407 380 358 305 309 307 298 320 285 268 286 300 291 282 279 255 245 233
277 271 269 273 279 279 273 280 282 271 273 265 291 302 302 290 336 308 313 317 320 331 333 342 339 341 352 346 345 369 378 352 307 308 315 304 305 305 261 275 288 292 284 269 249 244 232
273 272 276 276 275 273 272 267 268 269 284 299 298 291 291 295 328 304 302 318 316 323 332 336 341 330 338 333 326 339 352 344 306 301 310 321 308 297 256 269 277 282 284 264 250 246 236
272 269 268 266 265 265 266 266 276 292 289 287 283 289 278 353 312 298 304 326 319 340 338 342 343 328 341 324 325 323 337 371 306 291 306 319 325 286 295 264 272 299 280 257 245 245 241
253 289 284 287 289 286 290 292 289 282 277 284 295 282 302 332 302 295 314 344 397 357 341 342 328 325 342 331 323 329 338 349 379 292 283 288 304 311 297 272 272 284 281 253 245 251 247

GFSGBSN_2pvu_pres_078.txt.gz
Presure
173 171 185 156 180 132 184 186 140 148 175 179 178 159 135 178 124 180 173 145 180 168 163 180 177 189 178 172 188 198 201 217 204 238 221 224 225 207 237 221 232 213 224 190 194 192 196
171 185 190 186 166 185 124 162 185 178 165 118 173 175 167 147 167 137 153 172 184 180 188 183 182 175 167 217 210 213 229 222 226 235 222 223 240 232 240 236 236 224 236 220 206 196 195
184 183 130 188 181 181 149 177 176 187 159 189 178 133 174 163 178 207 186 180 194 222 185 184 201 193 202 229 212 215 218 212 217 234 251 259 252 281 244 246 230 220 226 222 208 197 190
197 171 165 191 177 178 168 188 192 180 187 134 163 197 176 127 123 173 187 218 178 186 214 174 226 204 232 223 216 220 220 241 299 275 266 272 270 291 262 226 301 228 230 210 207 206 196
207 185 200 202 182 184 157 201 185 176 171 120 151 204 134 169 187 198 168 210 226 170 227 226 218 218 220 218 218 226 247 282 271 263 275 280 306 304 287 300 286 234 228 219 204 203 201
142 203 196 207 209 175 122 192 140 215 204 141 137 180 206 175 145 212 211 229 184 209 229 225 221 221 232 220 236 256 256 298 287 290 293 297 297 296 277 274 280 235 225 225 207 204 202
212 177 184 214 136 139 226 223 212 224 208 205 206 118 215 209 199 229 235 234 226 224 229 223 227 229 216 240 249 267 250 296 299 296 285 271 275 273 267 269 267 230 233 217 224 221 212
156 206 211 175 196 190 118 204 188 150 122 206 204 184 178 164 223 203 236 223 230 225 221 225 224 232 225 237 258 321 306 309 311 288 281 268 258 255 253 249 253 258 221 220 204 205 207
150 123 216 217 209 214 214 211 210 206 201 124 205 189 216 237 204 230 227 226 228 224 230 223 243 236 251 260 314 308 310 305 282 287 277 265 254 246 247 242 242 233 236 225 217 207 211
223 213 221 222 211 208 207 215 152 202 209 204 189 214 172 226 224 235 234 219 222 225 235 241 241 248 263 291 318 299 298 301 290 285 283 265 260 248 240 238 235 237 228 224 214 218 212
226 217 226 217 212 204 208 163 203 207 216 215 207 179 228 229 229 222 232 234 232 231 230 249 242 239 281 307 266 314 314 294 285 275 264 270 260 251 243 236 229 227 227 230 220 212 216
217 228 223 219 216 214 208 206 207 211 203 161 215 220 238 221 220 238 236 228 232 240 232 242 229 271 301 297 289 313 314 300 286 276 267 261 262 246 245 236 238 238 232 226 225 221 221
227 216 214 214 212 204 209 208 213 215 145 217 228 229 214 235 217 241 231 232 240 247 251 256 259 271 285 302 308 307 306 296 291 281 275 255 256 254 240 239 233 230 232 231 226 228 223
225 231 230 221 219 219 219 214 217 214 221 232 231 246 240 237 232 235 229 247 284 261 277 242 260 285 319 311 304 302 310 301 291 285 285 269 247 253 249 239 237 233 226 228 228 227 220
255 249 228 228 232 235 228 223 219 229 237 231 229 235 245 233 228 249 246 251 243 240 262 260 290 299 306 312 304 293 292 295 292 292 283 285 264 256 250 246 241 231 228 228 227 223 217
267 244 243 245 236 236 239 241 237 239 245 241 247 225 238 238 229 254 236 232 265 244 259 297 302 312 312 314 314 312 310 310 303 285 293 288 280 289 249 242 245 234 233 223 222 213 215
271 241 250 229 244 238 231 229 241 240 246 226 229 260 257 228 231 238 270 261 282 266 300 295 309 322 322 316 320 317 312 295 300 304 290 280 282 287 258 249 242 244 233 229 226 224 232
277 279 255 260 252 250 236 230 243 231 233 223 249 241 235 231 241 253 249 264 293 289 297 313 318 316 313 306 297 289 289 302 309 292 289 306 259 289 278 257 251 245 237 238 238 231 230
277 261 273 265 264 267 263 263 246 253 241 267 253 260 242 252 280 281 274 294 284 291 314 309 302 294 290 309 337 310 297 287 280 297 296 298 309 266 280 277 255 248 244 240 236 233 234
268 260 256 256 257 273 260 265 255 238 233 250 250 253 280 281 266 282 293 277 302 317 304 290 373 436 422 412 311 427 448 382 330 274 287 296 297 316 275 275 272 257 250 248 244 236 241
277 271 270 268 268 266 262 255 253 271 244 285 294 282 276 286 270 279 292 306 304 293 287 369 372 405 406 402 438 451 414 437 414 334 272 283 294 307 282 276 271 267 258 251 250 249 246
293 287 278 285 284 283 286 282 284 282 266 277 280 280 267 281 281 295 302 294 285 330 315 357 364 387 387 424 407 417 423 408 427 358 314 272 275 285 304 273 276 272 265 256 252 251 251
278 279 283 275 278 269 272 269 275 269 276 265 272 276 294 285 294 292 282 278 330 311 331 352 354 374 377 395 393 402 419 438 427 363 317 292 271 273 280 301 294 284 274 263 257 251 245
269 273 269 272 283 267 267 264 272 271 277 280 283 283 283 279 288 281 272 317 309 296 322 329 335 370 361 377 382 386 401 430 402 347 306 292 292 277 270 284 307 310 283 279 259 256 254
270 269 276 276 276 272 271 281 278 286 288 280 280 286 278 284 275 272 307 305 291 320 307 325 324 350 376 373 380 387 392 417 374 339 303 296 300 289 277 272 283 297 310 287 277 270 267
274 275 275 277 278 282 283 281 267 277 277 275 277 281 275 269 283 300 295 294 314 318 299 317 327 332 346 355 354 346 370 398 364 334 309 299 303 313 289 271 267 271 309 290 277 278 278
270 273 271 277 273 270 274 274 271 273 275 275 275 270 268 296 297 292 304 302 335 305 295 333 324 355 345 348 345 341 355 403 356 330 305 305 305 308 314 309 268 264 291 294 280 275 274
275 275 269 269 245 265 279 275 271 271 267 265 266 269 298 293 284 305 313 341 320 294 316 353 351 339 341 346 339 333 324 360 343 324 315 315 311 322 296 307 292 259 275 289 292 277 278
258 266 264 264 259 246 244 235 260 257 259 289 293 291 285 284 287 315 317 344 290 314 328 368 344 349 332 326 333 326 326 345 348 318 314 310 309 314 282 293 285 257 274 289 292 278 269

GFSGBSN_2pvu_pres_081.txt.gz
Presure
172 177 175 182 181 162 141 171 184 180 173 183 127 189 184 151 183 184 153 178 154 181 134 132 142 147 185 144 180 174 206 190 185 188 180 161 188 195 203 218 236 232 225 221 229 218 215
130 188 173 179 180 188 187 177 171 192 177 163 178 180 170 169 183 159 138 123 144 185 165 143 185 166 128 182 165 223 172 192 159 181 193 204 215 210 217 219 230 230 249 241 236 229 227
185 180 163 163 166 182 150 144 178 190 189 193 180 191 194 177 180 185 187 188 185 145 179 187 207 146 174 190 183 212 224 213 176 219 188 237 218 213 242 269 295 283 280 280 261 253 235
184 163 184 177 185 138 157 177 175 182 192 187 192 184 180 196 185 169 168 144 202 194 190 129 139 166 204 215 200 193 164 215 213 204 228 232 237 235 289 284 305 296 288 276 262 272 237
181 172 163 186 183 194 192 174 167 175 178 209 167 191 191 172 149 183 206 135 177 203 125 167 196 201 218 222 223 218 174 189 223 216 232 208 260 280 298 311 303 267 269 263 282 287 252
197 219 205 198 181 181 135 171 210 173 191 189 146 192 185 127 161 193 212 199 178 183 133 204 195 229 221 227 178 232 225 235 220 235 241 243 313 308 298 299 298 307 321 286 297 287 246
170 172 138 150 205 193 183 192 208 151 198 191 179 196 126 218 224 207 206 213 157 213 192 207 201 223 226 231 235 226 233 232 232 237 240 323 305 305 293 301 301 292 298 274 284 273 247
187 192 182 180 205 192 197 184 198 194 202 204 210 226 189 158 203 211 222 214 211 210 202 222 206 223 231 227 172 239 229 245 239 267 328 308 309 303 294 283 279 281 278 261 268 277 281
223 198 145 195 185 192 205 193 178 177 196 186 221 218 205 213 205 205 212 225 208 207 190 150 187 221 236 220 244 247 239 239 269 265 328 306 300 288 284 273 264 275 267 253 257 249 270
220 206 194 160 134 210 216 215 208 203 209 227 227 219 213 211 201 210 208 203 194 208 202 145 219 178 229 226 256 244 248 296 272 273 310 319 306 280 277 279 263 255 262 254 246 244 240
128 139 181 224 222 220 213 215 215 210 221 229 218 212 218 211 206 203 212 197 205 217 219 228 227 240 157 254 239 263 262 238 260 303 314 318 301 279 282 283 263 245 252 245 242 243 245
229 224 224 229 216 219 219 209 210 213 236 225 225 208 219 206 174 222 192 213 194 205 182 216 176 228 247 231 250 244 240 255 298 311 327 320 302 284 270 271 262 255 246 241 237 234 232
263 267 272 253 242 252 185 230 227 234 235 207 216 209 198 206 210 218 216 171 218 228 218 240 238 225 219 250 244 283 269 264 305 315 317 318 301 285 270 261 261 259 244 237 233 230 227
320 293 270 266 272 256 251 250 258 242 228 219 218 220 215 213 222 218 225 219 211 234 232 248 244 224 228 257 262 272 267 302 308 315 309 317 296 296 271 257 259 250 248 242 235 226 223
266 281 281 288 283 271 265 273 250 237 229 216 213 215 220 224 221 227 224 223 239 239 250 221 280 271 243 255 280 264 297 302 312 324 307 291 309 299 279 259 262 247 244 239 238 234 232
279 267 269 270 265 258 273 262 244 249 237 221 219 220 233 229 227 234 234 231 230 220 233 234 244 280 280 293 287 293 290 309 328 321 319 299 294 297 290 267 253 256 246 235 232 229 228
284 275 266 271 261 251 252 247 249 256 230 229 227 232 234 237 239 240 240 241 232 253 234 266 276 283 285 289 299 297 313 308 325 278 315 313 317 277 301 284 255 258 248 240 236 230 227
276 261 270 274 265 267 263 252 250 255 240 254 233 242 228 224 226 233 249 241 230 273 259 240 286 278 294 285 301 320 326 308 307 302 304 307 310 337 288 293 280 249 256 246 240 233 225
275 277 269 269 255 259 266 268 267 267 259 256 245 240 237 237 252 257 267 267 244 284 294 293 287 296 290 309 329 304 303 336 326 313 281 287 303 304 304 290 291 269 249 254 243 238 233
274 270 262 268 263 262 265 270 260 261 258 263 265 260 247 265 264 270 266 265 279 290 284 279 289 301 318 306 316 409 388 440 442 434 337 278 278 304 304 293 290 279 266 247 251 241 239
279 276 279 275 275 267 264 262 260 259 252 261 265 260 257 261 264 266 279 286 287 284 280 288 307 305 292 352 414 419 438 369 439 420 447 344 269 278 304 295 286 290 277 257 249 253 242
289 277 280 279 260 269 265 256 259 276 255 259 251 268 267 281 282 275 272 286 274 291 304 300 294 286 324 350 384 404 430 410 423 467 405 395 324 273 283 302 307 251 289 269 252 246 243
287 278 283 287 290 288 276 268 264 263 268 266 275 284 284 265 268 275 273 291 297 298 296 285 282 320 344 336 373 393 409 415 418 426 392 401 350 310 270 287 298 303 263 278 265 248 243
271 274 272 275 272 274 277 279 280 279 278 274 274 274 274 267 267 278 286 296 290 289 276 300 310 322 331 332 377 405 400 398 408 435 410 392 333 323 285 270 290 285 289 269 267 262 255
266 266 272 270 268 269 272 273 277 277 271 276 276 272 276 277 281 294 290 285 280 272 303 301 312 329 316 348 357 389 382 382 396 442 397 345 315 289 283 289 273 285 301 285 279 259 254
263 263 264 258 262 266 263 262 270 270 268 275 277 271 285 286 282 283 281 274 269 302 286 317 340 322 306 354 366 369 369 360 388 395 332 292 299 294 287 298 273 272 283 315 279 274 259
260 263 262 260 263 259 257 264 266 271 272 275 280 278 280 275 276 271 268 279 297 285 321 353 321 302 345 355 352 355 348 383 398 332 311 300 293 294 286 293 290 268 273 288 310 277 266
274 271 269 267 270 270 270 270 273 270 276 276 274 278 273 271 265 268 299 288 284 305 318 327 303 325 365 352 341 332 328 348 373 317 302 296 293 294 299 303 330 272 267 268 294 313 276
269 276 256 263 268 263 262 267 263 266 235 269 254 273 265 255 292 286 288 283 298 320 345 311 317 373 353 341 329 326 318 342 351 308 306 290 286 290 298 325 303 295 263 260 265 281 308

GFSGBSN_2pvu_pres_084.txt.gz
Presure
163 163 158 179 124 179 167 172 175 168 180 185 179 170 156 174 153 154 190 190 180 183 184 186 166 168 127 131 183 140 156 177 178 187 179 177 157 203 185 205 186 192 185 194 209 205 209
160 158 175 162 179 170 184 178 182 178 168 162 184 183 164 176 178 175 178 189 172 185 193 142 156 190 158 175 153 134 146 198 181 185 157 204 184 200 217 207 169 220 207 220 230 241 223
188 160 186 159 160 192 180 175 184 188 171 169 171 178 182 184 122 178 177 183 169 164 147 128 187 193 190 179 198 161 202 189 206 182 136 217 222 229 225 196 232 215 176 229 209 216 329
173 195 184 191 197 186 193 169 191 152 156 189 185 186 183 174 170 173 180 176 173 179 146 179 184 189 180 165 156 195 144 143 204 151 198 216 227 167 235 227 244 223 232 244 278 275 289
156 159 171 195 145 172 194 189 200 183 191 190 194 186 176 162 180 180 181 167 172 150 134 164 116 163 195 203 210 143 165 170 184 198 171 169 229 226 213 242 244 244 280 356 335 321 319
191 136 190 180 180 193 197 208 195 200 208 202 175 187 155 138 191 178 143 182 193 190 175 180 221 216 219 214 203 219 216 204 192 218 214 221 230 232 248 229 245 274 339 329 316 300 300
206 143 174 180 204 210 196 176 201 179 203 195 217 149 187 178 185 133 108 193 194 187 206 227 222 141 209 212 187 225 200 224 220 150 220 224 245 246 236 239 315 316 322 320 308 307 304
165 186 198 211 211 162 204 183 214 192 191 133 154 210 173 186 190 180 159 179 193 201 206 231 219 212 221 217 217 195 214 216 222 220 206 160 191 191 298 255 247 325 316 315 299 291 294
225 216 158 213 168 180 192 221 189 180 193 181 183 186 192 192 190 190 182 217 204 202 213 230 217 225 215 219 138 224 212 218 207 214 231 243 212 211 215 236 318 318 310 302 292 281 290
219 237 194 194 243 196 186 212 222 144 145 189 198 187 185 201 193 212 202 208 204 209 214 228 221 218 213 211 211 215 215 218 221 228 240 241 264 244 277 320 320 319 298 295 279 273 284
142 249 235 230 234 235 206 228 198 204 215 205 203 199 209 181 202 211 211 209 206 200 209 231 223 215 211 211 213 220 224 225 233 230 261 295 249 256 290 325 337 307 293 285 270 266 277
301 241 175 244 261 187 239 223 198 213 203 212 213 210 185 192 208 214 205 206 202 204 213 233 220 213 218 218 218 179 230 226 242 244 256 242 254 287 311 329 333 295 286 279 269 258 270
360 325 326 298 266 266 259 239 239 232 223 215 217 218 214 213 214 212 215 214 223 208 226 229 224 222 213 221 227 207 230 239 241 246 303 275 290 303 313 322 324 292 278 274 276 253 249
331 326 314 325 290 273 255 267 262 263 237 224 222 222 221 219 168 187 239 234 237 230 231 225 221 216 223 225 228 230 244 249 252 282 263 291 304 295 325 321 321 294 280 264 269 253 240
316 321 303 298 287 264 206 279 267 263 264 258 258 259 173 269 252 236 240 237 241 247 236 214 214 222 236 229 232 241 251 260 273 251 302 302 306 304 331 340 312 298 272 261 259 254 243
302 302 322 289 282 277 265 262 260 254 245 248 254 252 260 263 253 244 240 236 239 240 234 228 224 226 233 245 235 239 252 266 277 301 299 301 302 329 344 341 317 303 271 259 251 252 244
304 305 290 290 272 261 255 277 282 278 274 264 243 251 249 251 258 255 249 255 229 241 239 228 228 236 235 230 254 266 285 297 299 288 305 311 324 333 325 363 322 291 269 259 253 249 246
296 299 288 294 283 282 271 267 257 257 250 255 254 244 249 242 240 252 243 236 233 239 246 228 240 250 237 243 274 275 294 293 290 309 334 334 312 306 306 334 324 301 288 261 257 240 241
290 289 288 286 277 268 264 256 263 264 249 253 246 250 251 243 240 250 253 257 254 255 248 265 250 264 276 275 279 294 294 298 319 318 317 308 321 297 294 307 327 308 292 264 261 244 238
283 290 269 270 268 260 265 253 252 254 251 246 254 255 252 252 249 258 267 260 258 264 263 268 262 270 268 290 293 286 310 319 309 343 459 409 466 380 318 282 324 336 291 271 260 253 240
274 285 280 263 271 271 259 263 263 248 247 258 247 252 252 240 263 260 258 261 264 263 267 271 275 286 283 285 306 318 312 324 362 457 460 470 439 434 348 282 296 306 274 292 257 256 249
267 304 277 273 267 269 270 265 265 267 258 255 247 247 256 264 267 258 261 259 260 257 264 285 278 279 289 313 311 298 330 356 395 434 428 430 443 445 398 306 286 317 303 284 269 248 254
269 273 296 276 273 262 275 268 264 264 262 260 264 250 257 262 263 268 266 275 278 286 277 277 285 304 305 297 292 333 357 338 437 427 417 410 383 399 478 314 283 302 289 304 286 255 255
270 266 267 280 289 293 270 269 272 270 271 267 268 267 269 261 263 273 277 278 270 277 282 292 295 292 286 287 306 355 331 389 397 395 436 410 389 404 410 318 295 271 298 287 300 280 272
272 266 263 266 270 283 274 272 275 279 280 280 274 276 279 273 273 276 277 274 277 286 288 289 287 278 302 303 353 328 382 393 375 378 404 410 380 378 354 330 286 265 285 282 284 289 284
268 269 267 265 267 266 270 271 267 268 269 269 270 269 272 269 274 273 274 282 286 284 280 274 272 305 298 355 331 314 359 388 361 378 473 395 376 330 329 315 285 273 266 287 277 280 264
267 268 263 265 270 267 277 276 271 267 267 266 267 267 265 266 274 280 278 279 278 278 268 285 296 295 347 338 308 371 359 380 346 393 395 330 307 304 297 279 255 276 287 266 287 288 270
262 263 264 259 257 254 259 260 262 258 259 260 266 266 269 271 277 277 277 272 274 260 293 288 292 338 339 311 373 351 347 353 350 340 327 303 293 292 285 282 265 287 316 294 268 288 294
261 257 258 259 262 264 258 257 256 261 265 268 272 273 267 261 275 270 252 272 260 293 283 282 326 347 311 391 354 334 344 334 324 297 300 296 290 284 281 273 272 275 279 286 302 275 288

GFSGBSN_2pvu_pres_087.txt.gz
Presure
141 166 179 154 183 183 170 160 181 176 180 190 154 182 173 154 189 175 187 166 147 180 162 183 195 167 189 184 186 182 156 173 184 185 160 187 119 192 167 134 184 197 167 188 181 170 232
189 180 147 169 159 154 193 191 194 159 178 193 180 189 189 182 183 160 146 187 179 184 182 126 179 153 185 180 158 154 131 163 179 190 191 165 151 153 184 148 185 184 208 197 199 196 236
177 170 166 189 190 183 185 189 197 161 183 196 124 195 194 200 161 174 182 182 148 188 189 195 177 192 187 134 185 153 193 190 172 141 192 188 162 198 207 151 201 192 200 170 184 198 230
185 194 173 174 188 191 165 180 186 189 193 172 188 190 192 193 189 183 201 194 180 194 184 133 192 150 189 176 178 194 197 134 159 166 195 197 201 149 199 203 196 206 212 176 220 235 259
160 192 178 125 126 188 147 166 197 184 185 193 193 168 195 184 187 173 191 211 201 202 173 187 179 182 192 143 185 191 171 181 182 171 228 227 223 218 210 215 215 222 222 179 227 256 260
204 193 182 202 163 137 200 199 194 191 195 200 190 194 146 192 195 183 180 208 191 193 159 185 183 197 133 182 207 209 171 192 215 210 228 220 211 197 216 217 221 217 189 230 205 242 247
152 136 185 183 196 197 205 215 201 196 165 210 159 131 191 162 146 200 202 165 200 188 163 190 184 175 190 187 182 187 206 218 202 167 133 228 228 202 224 159 222 173 223 224 330 231 271
227 217 140 180 182 156 229 173 203 180 182 191 197 190 208 179 208 210 171 197 184 202 196 205 120 189 164 182 174 199 197 193 187 211 230 222 214 213 156 220 226 227 238 251 272 259 308
209 217 201 189 205 188 211 213 214 174 231 164 202 161 212 203 224 200 205 184 146 168 173 188 203 203 203 211 181 221 175 224 213 212 229 215 207 211 215 216 227 232 243 269 320 321 345
198 215 234 203 235 230 257 171 195 224 191 208 152 170 198 215 175 136 210 218 195 176 185 199 185 190 200 203 200 218 215 199 215 229 229 227 220 216 228 225 232 240 268 312 303 371 338
345 342 330 357 268 231 238 227 195 208 218 226 171 173 131 184 157 182 216 186 205 200 124 193 184 207 204 196 210 211 217 211 217 230 229 232 217 228 220 238 246 261 284 294 348 355 330
351 329 318 320 321 326 205 171 235 172 223 243 206 228 200 159 190 184 185 191 200 198 196 189 186 210 206 217 210 212 216 210 231 233 228 232 227 230 235 233 245 270 308 323 337 330 314
307 358 338 315 312 311 305 311 297 283 241 249 211 223 221 142 198 177 222 201 196 215 215 205 199 216 218 217 212 217 215 224 233 235 232 231 229 224 242 251 281 313 316 324 349 315 296
310 288 314 300 310 309 339 339 326 309 305 280 251 248 246 137 241 217 229 223 226 205 218 220 215 216 217 224 226 233 244 239 185 235 245 241 244 227 260 255 262 316 306 333 358 303 286
312 302 283 280 290 282 319 303 165 291 290 275 266 261 198 244 143 250 249 247 234 233 235 229 197 230 232 237 249 243 239 236 249 255 246 235 246 262 253 285 303 304 325 346 344 297 279
313 297 287 272 281 280 294 280 278 290 273 252 251 234 262 257 253 250 265 264 251 260 250 192 252 261 261 255 250 243 239 252 264 260 265 252 233 285 299 305 302 323 344 353 330 293 272
316 298 277 274 275 324 302 289 283 281 281 266 252 247 251 253 260 258 253 252 249 247 262 266 261 255 258 256 259 261 256 236 238 251 258 271 278 293 295 297 312 329 328 338 323 290 270
322 292 291 290 295 300 302 284 275 270 265 260 263 244 243 267 242 245 249 246 240 255 237 254 245 246 243 262 248 246 254 266 265 274 276 286 294 316 295 321 322 131 308 331 315 280 269
301 304 291 298 280 285 282 292 265 266 257 267 258 255 253 251 237 264 266 262 257 259 247 240 241 243 241 244 255 262 269 269 269 275 285 298 306 334 349 187 298 302 303 322 310 280 270
317 284 284 277 289 302 284 274 274 286 267 273 274 260 247 259 260 250 241 245 247 243 246 243 245 244 252 255 275 265 269 268 289 294 287 315 203 322 352 392 384 357 291 308 300 280 263
306 285 269 275 273 280 290 288 271 270 262 272 271 272 266 254 254 246 244 244 239 246 252 253 259 249 262 262 259 256 285 294 289 294 329 318 340 386 503 487 406 359 301 303 319 286 266
311 283 276 265 276 280 266 266 262 261 260 259 254 242 245 246 244 251 243 244 251 253 250 251 274 274 273 281 284 289 281 298 318 304 332 351 428 444 473 445 414 365 329 289 321 289 271
300 290 274 267 265 270 258 263 262 264 262 249 253 258 250 251 254 260 253 259 252 253 254 275 264 263 266 285 277 290 315 307 295 320 362 434 446 425 421 425 411 357 305 278 302 312 276
296 290 280 268 264 290 268 265 258 258 270 270 263 258 260 261 259 266 257 257 256 266 273 267 280 280 281 284 298 304 295 305 310 348 404 399 443 401 394 419 447 313 316 278 296 297 282
290 284 275 266 262 271 294 274 266 263 259 261 264 264 265 263 268 271 271 276 280 285 278 273 279 279 291 293 291 304 307 306 337 385 376 383 425 387 384 427 438 313 299 276 289 291 301
271 281 277 270 265 266 263 280 291 293 296 291 277 289 281 280 286 285 278 279 276 273 273 274 282 285 295 280 310 297 354 338 378 371 396 484 387 385 379 386 364 308 318 282 308 274 289
261 283 281 270 267 266 265 263 268 270 272 268 263 264 271 274 271 267 269 268 270 277 278 279 281 283 269 308 291 311 338 378 350 352 378 372 352 339 347 328 287 286 295 280 273 281 280
259 267 275 277 275 274 270 266 264 268 267 272 272 275 269 267 261 267 273 273 272 273 278 271 277 279 302 290 353 329 379 351 333 367 320 314 307 310 300 295 271 264 283 283 262 277 275
255 264 264 265 268 270 271 274 269 268 263 264 263 263 262 267 268 271 266 270 274 275 262 271 284 292 286 356 335 342 356 344 344 90 301 292 294 288 286 283 278 267 263 282 277 263 261

GFSGBSN_2pvu_pres_090.txt.gz
Presure
170 177 136 181 177 196 178 190 187 171 172 189 183 193 205 194 183 186 192 190 183 194 187 152 187 186 175 185 162 164 151 198 178 176 194 188 184 134 187 183 176 118 171 137 134 197 192
180 192 180 186 196 183 176 185 186 203 193 183 181 184 186 163 190 158 185 182 176 189 195 183 148 163 144 137 189 194 193 194 180 192 191 177 183 189 193 150 157 187 183 194 194 203 197
194 159 153 198 194 191 183 165 178 161 186 138 198 172 192 194 126 195 186 184 195 201 179 197 160 181 196 190 198 183 198 125 167 138 190 163 183 134 141 193 167 190 191 184 206 202 220
180 191 184 160 167 185 203 207 188 180 218 195 196 174 188 195 165 188 184 147 186 189 190 200 192 181 158 206 184 191 194 199 176 190 194 190 149 150 154 184 188 195 231 204 209 210 211
126 198 189 205 197 180 173 204 209 204 191 200 193 170 183 175 169 188 196 163 190 181 198 189 197 200 200 192 200 202 197 192 183 190 194 175 177 182 191 172 198 210 194 225 220 222 216
196 177 149 209 213 205 182 208 145 213 201 200 210 169 166 186 200 185 203 164 193 168 179 148 178 191 170 199 190 193 196 187 193 191 156 199 195 195 198 194 191 140 214 230 232 210 228
135 229 178 183 153 169 155 178 205 185 200 197 151 192 202 188 163 187 194 194 207 186 193 172 179 181 190 199 173 197 205 206 201 161 190 203 190 198 204 198 174 220 228 235 149 219 225
201 220 224 199 140 193 225 142 195 231 190 217 175 138 203 185 182 193 155 207 162 165 199 183 193 186 207 197 198 178 195 184 188 197 193 179 197 198 211 200 227 220 232 238 229 227 228
235 174 193 241 236 155 199 217 247 228 190 157 201 224 194 203 151 218 207 202 152 186 197 152 212 183 201 162 191 167 202 197 199 188 194 204 203 205 194 210 202 234 220 230 224 234 229
229 339 343 362 146 343 291 373 264 168 210 160 218 226 164 199 195 240 203 168 161 206 197 215 197 197 162 198 216 209 209 205 213 196 191 200 206 206 219 224 217 211 229 235 237 238 232
352 356 370 346 339 161 326 338 342 358 154 262 180 247 233 195 219 226 235 104 157 202 201 222 199 184 192 195 190 197 190 198 212 205 182 202 201 204 224 217 221 234 237 235 214 244 262
344 342 351 623 311 320 311 338 287 320 311 158 288 227 234 238 167 235 226 187 172 162 227 187 196 184 193 217 178 202 193 197 199 208 206 204 218 212 218 228 230 241 245 245 249 264 241
357 341 338 317 308 325 315 300 300 286 295 312 311 316 271 155 226 212 241 191 245 174 216 178 182 195 191 195 204 225 207 200 204 201 202 215 225 224 231 230 240 249 244 251 259 265 281
313 314 343 325 293 282 343 300 277 280 288 296 152 302 308 312 281 253 242 246 184 225 182 217 222 133 217 194 204 227 217 209 228 236 224 227 219 234 234 251 248 244 252 266 263 266 338
306 322 313 312 311 286 302 304 306 312 307 320 314 320 324 298 265 299 274 229 224 214 237 163 233 224 225 223 242 233 245 247 233 229 242 244 247 251 252 248 250 270 247 260 276 311 335
294 316 323 316 311 309 308 297 279 277 290 302 293 302 294 292 289 155 267 272 266 268 173 246 240 247 244 245 255 260 211 262 264 254 254 250 256 263 264 267 248 255 267 279 297 321 361
281 292 316 319 307 293 295 291 284 274 261 290 277 281 279 268 271 258 264 266 254 252 256 252 255 264 268 266 251 255 249 247 262 264 264 267 266 261 247 262 271 271 282 295 306 314 360
273 275 316 355 325 303 294 278 289 280 270 291 273 283 265 261 252 254 251 256 254 255 257 259 251 256 253 256 257 243 258 252 256 261 255 259 258 272 270 273 273 285 301 305 308 336 364
283 285 306 353 320 300 294 269 270 267 291 288 280 265 266 264 248 258 247 246 261 251 253 255 258 240 267 266 261 261 260 250 251 251 254 257 266 288 283 271 278 295 299 321 326 316 326
270 281 282 326 304 292 275 283 289 302 298 278 273 270 264 259 252 260 263 248 241 243 240 249 240 260 254 247 245 248 248 250 251 252 257 263 275 279 307 308 292 307 224 324 228 306 312
278 273 294 300 303 304 294 300 276 275 281 277 264 256 253 255 262 250 241 240 240 241 252 237 260 249 241 246 244 246 255 253 254 255 290 289 295 303 308 208 326 308 374 378 347 295 337
276 272 300 326 293 278 280 289 289 291 264 269 279 249 261 254 250 249 250 264 263 263 254 252 249 244 251 250 247 253 257 264 268 281 294 303 304 332 312 305 400 408 394 386 376 329 298
268 270 292 310 291 277 272 274 289 284 280 274 270 264 251 252 264 258 262 263 262 262 255 252 248 247 248 246 258 264 274 277 292 290 297 312 305 320 372 452 457 485 500 438 355 329 336
266 271 276 315 282 276 265 258 276 268 265 263 274 268 259 256 255 250 249 248 250 252 252 251 257 262 265 270 269 283 289 292 292 306 298 312 370 405 427 418 420 424 408 384 340 310 293
264 266 272 303 286 271 266 277 265 265 268 258 263 258 254 250 250 250 250 250 262 262 255 253 258 265 278 281 285 275 287 293 295 307 310 396 403 408 411 390 393 412 350 341 325 296 281
259 263 269 299 292 275 269 262 272 266 255 259 269 252 253 263 271 252 259 259 259 261 265 271 283 279 278 279 290 295 292 283 308 357 392 410 448 427 378 370 398 408 359 322 297 284 277
256 259 268 295 286 282 270 259 262 281 267 264 259 259 258 256 260 265 263 272 279 272 269 270 269 272 282 286 286 278 288 294 374 377 395 379 386 382 388 395 388 329 326 295 305 279 280
258 261 265 277 285 277 269 265 261 262 275 289 285 278 287 285 275 266 263 267 270 264 266 273 277 279 281 281 268 305 289 343 349 351 340 332 329 327 317 314 351 310 300 292 278 279 270
260 262 263 272 283 277 273 263 267 264 262 263 267 266 264 263 265 273 267 260 270 271 268 278 280 271 294 294 291 290 341 358 367 328 337 318 224 304 309 318 335 304 287 278 297 270 260

GFSGBSN_2pvu_pres_093.txt.gz
Presure
188 187 188 191 185 188 158 171 168 178 180 186 157 185 170 168 152 193 187 193 181 157 183 185 194 171 192 180 171 178 191 187 163 169 131 181 195 200 192 188 192 166 199 146 189 175 163
195 165 182 154 182 174 165 189 184 195 197 194 175 182 151 191 194 186 182 188 194 183 190 183 175 182 192 183 193 151 195 135 201 187 190 190 195 197 195 190 199 183 201 191 193 197 172
173 178 184 173 197 164 196 206 199 213 178 212 195 172 198 142 200 191 184 198 205 200 180 201 170 197 184 192 202 195 175 198 184 191 183 186 184 160 189 199 176 200 199 135 141 156 192
182 192 198 206 186 195 178 162 184 193 171 157 162 153 206 189 170 192 182 219 189 209 144 175 178 187 197 188 195 197 194 192 176 192 192 130 188 196 199 201 196 159 187 180 202 207 199
197 193 206 193 205 178 211 203 188 168 186 204 179 191 140 163 183 175 218 205 175 193 202 200 171 194 178 193 187 203 198 181 197 172 199 191 195 197 196 208 194 195 194 189 182 198 182
191 188 187 212 188 183 188 195 219 177 181 187 151 147 173 199 221 159 181 183 194 208 170 182 160 174 194 199 194 194 203 177 142 201 179 197 197 202 190 166 203 165 189 190 189 195 203
171 170 159 192 145 190 172 208 224 222 167 212 202 141 200 135 153 128 179 164 207 186 212 193 196 206 195 189 206 192 206 205 197 191 202 202 198 206 189 207 186 195 201 172 201 192 199
200 166 222 165 202 174 161 241 233 197 241 171 235 208 205 154 204 188 197 190 159 182 195 168 198 189 174 201 158 210 171 197 174 207 177 154 204 212 193 199 203 201 204 202 196 199 195
215 207 206 219 207 199 126 179 224 210 194 233 196 200 219 191 213 200 239 141 223 169 233 179 198 158 173 192 196 211 163 210 198 204 199 190 187 196 159 218 213 201 211 207 205 198 209
195 183 254 225 218 217 217 248 387 369 236 224 273 246 234 142 250 258 183 151 177 212 207 154 179 167 148 205 189 195 214 211 213 201 203 207 211 206 223 192 200 189 193 200 207 204 208
208 277 228 281 234 391 383 369 369 366 355 353 349 344 160 340 317 325 223 258 256 194 234 250 204 198 214 219 199 196 131 200 209 219 198 206 195 198 192 193 202 206 220 204 202 214 210
283 280 306 327 372 370 379 348 354 341 325 310 305 295 320 284 332 327 336 301 237 149 146 256 197 222 219 229 214 213 211 204 198 192 188 210 207 199 197 203 197 207 211 207 216 216 228
318 340 366 359 348 340 372 320 325 308 293 293 292 292 301 285 296 316 343 344 176 221 180 178 218 220 150 208 205 227 216 193 200 205 185 224 194 192 205 210 207 205 224 207 236 237 247
347 346 331 324 319 325 311 312 314 295 290 279 268 281 287 275 287 300 300 354 323 324 292 254 241 240 202 196 196 206 214 234 137 197 197 202 201 199 223 213 216 240 258 253 244 250 255
324 309 312 298 294 311 309 314 319 306 301 306 269 284 274 292 289 276 301 304 305 319 330 304 259 246 229 232 194 207 238 191 168 227 222 197 224 235 231 228 254 246 251 248 251 258 270
307 293 280 290 295 293 327 319 327 320 295 292 295 287 289 280 273 299 303 286 280 295 302 294 243 264 257 264 228 230 174 232 212 209 238 240 221 233 155 255 261 261 260 253 251 260 272
278 277 287 278 281 290 302 337 311 313 273 296 292 294 310 308 308 299 330 308 292 280 267 264 239 268 279 265 238 214 260 242 241 248 244 243 251 263 257 252 246 246 254 261 256 250 269
267 264 268 277 277 287 280 315 321 298 281 284 291 270 264 287 285 280 299 276 273 266 259 267 266 261 260 261 261 262 252 251 245 241 262 253 254 253 246 241 260 259 257 262 264 269 283
278 273 265 270 285 273 276 296 329 307 300 284 282 272 258 279 269 268 277 263 260 255 241 239 248 249 247 246 248 257 260 255 257 252 251 267 275 271 260 253 252 251 251 260 269 281 226
283 287 269 275 270 288 295 352 313 305 285 288 260 264 271 279 274 261 249 251 247 242 245 249 245 242 247 257 253 246 243 254 243 275 265 255 255 253 253 259 254 255 263 274 299 326 317
270 280 282 277 273 273 285 314 319 298 293 280 279 308 294 267 254 261 252 247 250 242 246 238 242 245 241 243 235 242 255 241 268 258 251 258 255 258 267 265 267 289 273 304 329 334 351
266 269 274 266 273 279 281 306 296 284 276 276 272 291 280 277 253 252 257 255 253 251 252 261 249 233 239 237 252 245 238 247 254 255 264 260 253 260 267 296 312 329 325 329 322 319 305
266 259 267 266 274 274 283 302 297 295 285 308 277 285 275 267 256 251 241 246 248 251 242 241 242 239 238 240 250 261 262 263 256 256 260 259 265 280 315 324 333 315 380 488 480 409 415
267 261 267 265 271 269 315 296 277 285 294 279 270 271 270 258 254 255 247 245 243 244 240 242 244 251 256 257 259 257 254 254 255 261 276 289 309 304 321 305 336 457 423 392 428 521 394
269 265 267 261 267 269 301 280 280 277 294 279 274 261 262 273 265 248 264 261 260 261 256 259 259 249 248 250 252 252 268 271 274 298 295 301 303 301 391 420 424 400 371 353 392 427 362
267 265 263 261 262 269 288 278 266 264 276 278 277 269 262 254 261 258 260 260 256 255 250 251 250 247 256 267 262 269 288 291 288 292 295 291 317 478 457 405 402 373 351 353 379 356 328
260 260 258 262 257 278 290 271 268 272 268 264 262 263 268 262 259 253 250 246 248 248 251 255 265 262 266 276 287 278 277 291 293 287 288 362 401 385 371 389 384 360 341 351 354 327 305
258 260 255 262 256 276 293 275 266 264 273 262 264 256 255 259 260 251 250 254 262 262 261 267 276 275 272 270 277 286 287 289 292 332 357 367 354 341 336 341 338 345 324 326 336 302 293
257 261 255 260 257 294 291 278 265 264 260 256 263 263 262 259 260 256 262 260 264 280 270 270 269 263 277 280 279 275 293 299 322 349 349 345 335 327 318 333 357 350 305 302 325 287 280

GFSGBSN_2pvu_pres_099.txt.gz
Presure
187 153 174 169 184 185 169 182 186 184 192 162 135 180 179 178 168 184 173 185 195 167 200 192 174 148 193 187 175 194 176 182 178 183 188 191 182 190 164 195 142 189 174 168 194 172 176
181 182 185 182 154 173 168 129 183 181 170 177 185 176 177 183 178 184 184 197 195 181 194 188 138 184 184 195 189 170 198 182 168 184 170 193 178 194 197 193 176 151 156 190 197 129 141
181 178 130 157 171 175 176 179 165 175 173 180 166 169 192 194 117 196 184 196 195 203 198 202 156 201 208 181 200 204 148 181 189 207 194 171 189 201 191 176 164 169 190 162 137 167 191
173 172 171 178 180 185 157 185 177 189 194 187 201 195 194 189 179 166 194 204 141 193 152 212 216 128 141 152 202 200 176 202 190 193 220 198 193 191 206 186 191 180 195 185 205 195 190
190 159 195 190 179 169 149 189 175 185 195 195 203 192 170 197 199 207 181 156 202 213 215 177 218 184 157 183 148 207 164 208 182 206 166 177 207 182 193 211 207 193 191 185 191 188 197
184 180 158 169 160 198 184 191 197 189 187 197 151 189 188 186 196 187 194 226 203 208 205 218 160 204 199 202 192 200 187 202 212 194 163 218 215 214 208 195 175 212 194 182 208 196 186
201 155 184 194 211 197 187 142 123 176 176 207 192 195 207 203 212 194 162 195 151 168 137 216 236 223 145 215 191 212 222 209 157 196 224 210 178 192 208 208 191 177 211 185 178 179 200
207 153 177 197 205 175 187 193 125 178 207 208 186 208 207 169 211 164 221 208 210 168 205 180 239 188 218 223 214 203 214 220 214 196 178 175 200 179 187 211 214 206 203 201 204 197 195
201 204 205 177 165 169 213 202 175 201 211 176 202 224 218 221 214 205 228 231 184 245 235 147 208 198 196 203 219 228 234 217 238 190 196 197 164 200 209 191 202 196 170 198 193 214 197
233 165 160 172 219 197 171 170 157 208 184 181 225 221 220 240 197 204 260 239 248 247 223 397 345 233 198 203 410 233 256 145 202 227 210 244 196 165 173 199 216 212 198 194 191 203 200
227 192 172 206 174 208 195 205 214 224 208 194 215 206 217 227 265 261 238 249 232 270 338 355 358 329 287 329 290 236 306 302 286 139 143 187 196 240 210 215 206 205 200 188 203 168 204
227 225 215 201 210 198 197 219 206 199 225 236 242 219 244 259 249 251 363 368 349 339 322 318 318 305 310 333 336 353 343 309 292 274 246 225 236 255 204 154 177 213 199 214 223 209 208
210 214 216 230 201 225 208 235 235 239 210 244 243 261 247 276 329 332 327 324 304 328 323 308 305 290 313 312 323 316 361 359 329 297 286 275 269 219 217 221 210 219 194 207 215 216 230
241 226 267 244 267 231 247 232 211 249 228 239 269 243 300 354 323 332 301 296 299 316 308 299 297 286 293 287 304 302 316 315 347 337 233 232 266 229 217 216 221 215 218 212 235 207 219
266 227 259 253 239 247 262 229 226 226 261 280 267 355 347 337 344 287 303 299 297 302 278 271 283 292 285 280 276 296 321 321 306 328 327 309 290 275 226 217 226 228 192 237 241 226 230
287 256 229 252 248 246 258 248 256 269 278 324 338 333 327 298 286 301 299 296 291 276 272 275 284 282 277 283 290 290 311 305 302 295 310 316 302 285 271 266 190 208 216 229 229 235 234
291 284 287 276 287 278 274 277 272 295 326 314 327 317 292 293 288 321 289 294 279 283 288 282 279 271 284 273 284 295 294 287 296 290 286 285 296 290 281 256 261 255 252 253 245 248 232
292 308 322 336 328 327 333 325 328 282 295 305 308 287 287 281 288 307 302 279 280 272 285 282 281 288 280 283 271 286 288 290 291 277 272 298 268 266 263 292 274 269 238 237 207 238 252
408 324 329 304 271 289 302 295 299 300 300 282 286 282 281 276 286 326 288 297 308 274 279 292 283 296 306 280 277 278 270 264 273 273 270 264 264 263 256 249 265 269 271 268 239 233 253
431 417 396 375 366 354 338 321 310 316 286 282 284 275 265 280 278 306 292 303 280 267 279 274 279 313 279 272 264 259 258 261 258 259 253 250 249 249 253 249 247 245 244 250 261 262 261
429 401 402 373 365 346 329 318 307 296 289 285 282 273 271 270 272 305 294 285 270 281 272 276 284 289 274 259 257 258 250 253 248 249 250 250 251 249 252 253 252 254 249 252 252 257 258
336 359 382 363 362 343 321 306 295 286 284 285 278 275 273 344 326 307 285 275 261 270 268 275 260 261 250 253 248 249 250 240 244 250 251 245 243 245 246 246 243 243 252 255 193 255 263
313 376 391 356 339 328 314 295 284 281 286 280 276 275 277 335 313 296 293 280 272 266 267 255 261 252 243 252 249 249 250 236 232 241 242 238 239 245 253 256 259 252 247 252 255 264 287
331 337 370 355 339 309 295 282 278 274 281 280 267 272 311 303 295 281 271 273 271 258 263 251 252 243 254 242 248 241 239 244 239 231 234 241 255 251 246 247 251 255 259 270 285 283 198
352 318 361 352 338 303 289 279 270 270 271 273 269 312 308 295 288 273 256 298 276 263 254 261 243 243 243 246 237 235 239 237 239 242 249 248 244 245 249 253 259 272 275 280 293 333 327
325 323 351 332 320 294 279 273 273 269 273 263 275 303 285 281 276 292 295 281 273 263 254 248 247 247 238 241 247 243 239 243 247 248 246 250 248 250 255 265 286 303 329 318 327 399 413
308 347 334 319 304 285 279 271 268 268 261 267 276 297 288 281 287 285 280 268 266 260 252 252 249 246 246 244 243 244 246 240 244 249 254 257 268 276 285 319 305 364 431 399 383 367 351
343 334 322 306 295 281 275 268 265 262 264 278 289 278 293 278 272 280 274 267 272 267 250 250 246 242 242 246 245 242 245 244 260 260 261 264 278 304 302 311 346 397 371 368 331 324 320
335 322 307 295 282 276 266 265 260 262 280 280 275 269 289 264 257 259 261 258 253 253 256 252 247 241 242 242 254 257 265 260 257 261 282 287 282 295 310 368 380 360 360 326 311 317 315